Location: 22
(39.7117°N, 89.5929°W)
Time: 08:39:31
(UTC-05:00)

Transit 2A - Pass Details

Date: 08 August 2024
Orbit: 590 x 961 km, 66.7° (Epoch: 13 September)

Event Time Altitude Azimuth Distance (km) Brightness Sun altitude
Rises 15:17:46 0° 312° (NW) 3,649 9.6 52.3°
Reaches altitude 10° 15:21:30 10° 292° (WNW) 2,681 9.3 51.7°
Maximum altitude 15:24:54 15° 259° (WSW) 2,288 9.4 51.1°
Drops below altitude 10° 15:28:13 10° 225° (SW) 2,599 9.6 50.6°
Sets 15:31:46 0° 204° (SSW) 3,474 9.8 50.0°
